This is the latest recevied weather packets stored in our database for station/object WX4SGA. If no packets are shown the sender has not sent any weather packets the latest 10 day(s).
| Time | Temp. | Humidity | Pressure | Rain* | Wind** | Luminosity | Snow |
|---|---|---|---|---|---|---|---|
| 1788134281 | 26.11° C | 89% | 1018.3 hPa | 0 mm | - | 2 W/m² | - |
| 1788133976 | 26.11° C | 90% | 1018.6 hPa | 0 mm | - | 3 W/m² | - |
| 1788133671 | 26.67° C | 87% | 1018.3 hPa | 0 mm | - | 5 W/m² | - |
| 1788133367 | 27.22° C | 86% | 1018.3 hPa | 0 mm | - | 10 W/m² | - |
| 1788133079 | 27.78° C | 85% | 1018.3 hPa | 0 mm | - | 10 W/m² | - |
| 1788132758 | 27.22° C | 85% | 1018.6 hPa | 0 mm | - | 5 W/m² | - |
| 1788132453 | 27.22° C | 91% | 1018.3 hPa | 0 mm | - | 23 W/m² | - |
| 1788132149 | 27.22° C | 90% | 1018.3 hPa | 0 mm | - | 25 W/m² | - |
| 1788131845 | 27.78° C | 83% | 1018.3 hPa | 0 mm | - | 28 W/m² | - |
| 1788131545 | 27.78° C | 84% | 1018.3 hPa | 0 mm | - | 27 W/m² | - |
| 1788131240 | 27.78° C | 82% | 1018.3 hPa | 0 mm | - | 31 W/m² | - |
| 1788130935 | 27.78° C | 82% | 1018.3 hPa | 0 mm | - | 36 W/m² | - |
| 1788130635 | 28.33° C | 82% | 1018.3 hPa | 0 mm | - | 35 W/m² | - |
| 1788130335 | 28.33° C | 79% | 1018 hPa | 0 mm | - | 37 W/m² | - |
| 1788130034 | 28.33° C | 80% | 1018.3 hPa | 0 mm | - | 34 W/m² | - |
| 1788129730 | 28.33° C | 77% | 1018.3 hPa | 0 mm | - | 42 W/m² | - |
| 1788129426 | 28.33° C | 77% | 1018.3 hPa | 0 mm | - | 44 W/m² | - |
| 1788129121 | 28.89° C | 77% | 1018 hPa | 0 mm | - | 45 W/m² | - |
| 1788128816 | 28.33° C | 78% | 1018 hPa | 0 mm | - | 47 W/m² | - |
| 1788128512 | 28.89° C | 78% | 1018 hPa | 0 mm | - | 177 W/m² | - |
| 1788128208 | 28.89° C | 79% | 1018 hPa | 0 mm | - | 172 W/m² | - |
| 1788127903 | 28.89° C | 78% | 1018.3 hPa | 0 mm | - | 237 W/m² | - |
| 1788127599 | 28.89° C | 78% | 1018 hPa | 0 mm | - | 259 W/m² | - |
| 1788127298 | 28.89° C | 78% | 1018 hPa | 0 mm | - | 218 W/m² | - |
| 1788126997 | 28.89° C | 79% | 1018 hPa | 0 mm | - | 240 W/m² | - |
* Rain latest hour (hover to see other rain measurements)
** Current wind speed in m/s (hover to see current wind gust speed)